TimeCST,TemperatureF,Dew PointF,Humidity,Sea Level PressureIn,VisibilityMPH,Wind Direction,Wind SpeedMPH,Gust SpeedMPH,PrecipitationIn,Events,Conditions,WindDirDegrees,DateUTC
12:58 AM,54.9,54.1,97,30.15,10.0,SE,6.9,-,N/A,,Clear,140,2013-01-29 06:58:00
1:50 AM,55.4,55.4,100,30.13,8.0,SE,4.6,-,N/A,,Mostly Cloudy,140,2013-01-29 07:50:00
1:58 AM,55.4,55.4,100,30.14,8.0,SE,2.3,-,N/A,,Mostly Cloudy,140,2013-01-29 07:58:00
2:03 AM,57.2,57.2,100,30.13,9.0,South,4.6,-,N/A,,Overcast,170,2013-01-29 08:03:00
2:19 AM,60.8,60.8,100,30.12,10.0,South,12.7,-,N/A,,Overcast,190,2013-01-29 08:19:00
2:39 AM,60.8,59.0,94,30.12,10.0,South,12.7,-,N/A,,Overcast,190,2013-01-29 08:39:00
2:49 AM,60.8,59.0,94,30.12,10.0,South,11.5,-,N/A,,Overcast,190,2013-01-29 08:49:00
2:58 AM,60.3,59.4,97,30.13,9.0,South,10.4,-,N/A,,Overcast,190,2013-01-29 08:58:00
3:03 AM,60.8,59.0,94,30.11,8.0,South,12.7,-,N/A,,Overcast,180,2013-01-29 09:03:00
3:19 AM,59.0,59.0,100,30.11,3.0,South,10.4,-,N/A,,Overcast,180,2013-01-29 09:19:00
3:29 AM,59.0,59.0,100,30.10,3.0,South,12.7,-,N/A,,Overcast,180,2013-01-29 09:29:00
3:34 AM,59.0,59.0,100,30.10,3.0,South,10.4,-,N/A,,Overcast,180,2013-01-29 09:34:00
3:44 AM,59.0,59.0,100,30.11,3.0,South,10.4,-,N/A,,Overcast,180,2013-01-29 09:44:00
3:49 AM,59.0,59.0,100,30.10,4.0,South,10.4,-,N/A,,Overcast,180,2013-01-29 09:49:00
3:58 AM,59.7,59.7,100,30.11,4.0,South,12.7,-,N/A,,Overcast,180,2013-01-29 09:58:00
4:08 AM,59.0,59.0,100,30.10,5.0,South,9.2,-,N/A,,Overcast,170,2013-01-29 10:08:00
4:58 AM,59.7,59.7,100,30.08,7.0,SSE,6.9,-,N/A,,Overcast,150,2013-01-29 10:58:00
5:19 AM,59.0,59.0,100,30.06,8.0,SSE,9.2,-,N/A,,Overcast,150,2013-01-29 11:19:00
5:24 AM,59.0,59.0,100,30.06,8.0,SSE,8.1,-,N/A,,Overcast,150,2013-01-29 11:24:00
5:35 AM,59.0,59.0,100,30.06,7.0,South,5.8,-,N/A,,Overcast,170,2013-01-29 11:35:00
5:40 AM,59.0,59.0,100,30.07,8.0,South,6.9,-,N/A,,Overcast,180,2013-01-29 11:40:00
5:58 AM,60.4,60.3,99,30.07,10.0,SSE,8.1,-,N/A,,Overcast,160,2013-01-29 11:58:00
6:03 AM,60.8,60.8,100,30.07,10.0,South,9.2,-,N/A,,Overcast,170,2013-01-29 12:03:00
6:28 AM,60.8,60.8,100,30.07,10.0,South,5.8,-,N/A,,Overcast,180,2013-01-29 12:28:00
6:53 AM,62.6,62.6,100,30.07,10.0,South,8.1,-,N/A,,Overcast,170,2013-01-29 12:53:00
6:58 AM,62.2,62.2,100,30.07,10.0,South,8.1,-,N/A,,Overcast,170,2013-01-29 12:58:00
7:18 AM,62.6,62.6,100,30.08,10.0,SSE,8.1,-,N/A,,Overcast,160,2013-01-29 13:18:00
7:58 AM,62.6,62.6,100,30.08,10.0,SSE,9.2,-,N/A,,Overcast,160,2013-01-29 13:58:00
8:58 AM,64.9,63.1,94,30.06,10.0,South,9.2,-,N/A,,Overcast,180,2013-01-29 14:58:00
9:50 AM,66.2,62.6,88,30.04,10.0,South,15.0,-,N/A,,Overcast,190,2013-01-29 15:50:00
9:58 AM,66.6,62.6,87,30.05,10.0,South,10.4,-,N/A,,Overcast,180,2013-01-29 15:58:00
10:35 AM,68.0,62.6,83,30.03,10.0,South,12.7,-,N/A,,Overcast,190,2013-01-29 16:35:00
10:58 AM,68.7,62.8,81,30.03,10.0,SSW,12.7,-,N/A,,Overcast,200,2013-01-29 16:58:00
11:58 AM,68.4,63.1,83,29.99,10.0,South,13.8,19.6,N/A,,Overcast,180,2013-01-29 17:58:00
12:03 PM,68.0,62.6,83,29.97,10.0,South,12.7,-,N/A,,Overcast,180,2013-01-29 18:03:00
12:18 PM,69.8,62.6,78,29.96,10.0,South,12.7,19.6,N/A,,Overcast,180,2013-01-29 18:18:00
12:58 PM,71.6,62.6,73,29.94,10.0,South,16.1,21.9,N/A,,Mostly Cloudy,190,2013-01-29 18:58:00
1:24 PM,73.4,62.6,69,29.90,10.0,South,16.1,24.2,N/A,,Scattered Clouds,180,2013-01-29 19:24:00
1:58 PM,74.5,63.1,68,29.88,10.0,South,19.6,25.3,N/A,,Scattered Clouds,180,2013-01-29 19:58:00
2:58 PM,76.1,62.1,62,29.86,10.0,South,15.0,24.2,N/A,,Scattered Clouds,190,2013-01-29 20:58:00
3:38 PM,75.2,60.8,61,29.85,10.0,SSW,15.0,18.4,N/A,,Mostly Cloudy,200,2013-01-29 21:38:00
3:43 PM,75.2,60.8,61,29.84,10.0,South,13.8,18.4,N/A,,Mostly Cloudy,190,2013-01-29 21:43:00
3:58 PM,75.4,60.6,60,29.85,10.0,South,10.4,-,N/A,,Mostly Cloudy,190,2013-01-29 21:58:00
4:58 PM,74.5,61.0,63,29.85,10.0,South,9.2,-,N/A,,Scattered Clouds,180,2013-01-29 22:58:00
5:58 PM,73.4,61.2,65,29.83,10.0,South,15.0,-,N/A,,Scattered Clouds,170,2013-01-29 23:58:00
6:58 PM,71.6,61.5,70,29.81,10.0,South,12.7,-,N/A,,Clear,170,2013-01-30 00:58:00
7:58 PM,71.6,62.6,73,29.80,10.0,South,15.0,20.7,N/A,,Clear,180,2013-01-30 01:58:00
8:53 PM,71.6,64.4,78,29.78,10.0,South,13.8,26.5,N/A,Rain,Light Rain,180,2013-01-30 02:53:00
8:58 PM,72.3,63.7,74,29.78,10.0,South,16.1,24.2,0.00,Rain,Light Rain,180,2013-01-30 02:58:00
9:02 PM,71.6,64.4,78,29.77,10.0,South,17.3,24.2,N/A,,Mostly Cloudy,190,2013-01-30 03:02:00
9:22 PM,71.6,64.4,78,29.76,10.0,South,17.3,29.9,N/A,,Scattered Clouds,190,2013-01-30 03:22:00
9:32 PM,71.6,64.4,78,29.76,10.0,South,18.4,26.5,N/A,,Mostly Cloudy,180,2013-01-30 03:32:00
9:47 PM,71.6,64.4,78,29.76,10.0,South,18.4,26.5,N/A,,Scattered Clouds,180,2013-01-30 03:47:00
9:52 PM,71.6,64.4,78,29.75,10.0,South,16.1,25.3,N/A,,Mostly Cloudy,170,2013-01-30 03:52:00
9:58 PM,71.6,64.4,78,29.75,10.0,South,19.6,23.0,0.00,,Scattered Clouds,170,2013-01-30 03:58:00
10:58 PM,71.1,64.2,79,29.73,10.0,South,16.1,27.6,N/A,,Clear,190,2013-01-30 04:58:00
11:58 PM,71.2,64.2,78,29.71,10.0,South,18.4,27.6,N/A,,Partly Cloudy,190,2013-01-30 05:58:00